This demonstration page uses our WeatherBlox Daily Observations layout. Learn more.

Left ArrowRight Arrow

Hourly Observations for September 24, 2022

Temp ( °F °C ) Dew Point ( °F °C ) Humidity (%) Winds ( mph kmh ) Pressure ( in mb ) Visibility ( mi km ) Precip ( " mm )
12:53 am 00:53 Clear N/A N/A N/A Calm 30.15 1021 10 16 0.00 0.00
1:53 am 01:53 Clear N/A N/A N/A Calm 30.17 1022 10 16 0.00 0.00
2:53 am 02:53 Clear N/A N/A N/A Calm 30.17 1022 10 16 0.00 0.00
3:53 am 03:53 Clear N/A N/A N/A Calm 30.15 1021 10 16 0.00 0.00
4:53 am 04:53 Clear N/A N/A N/A Calm 30.15 1021 10 16 0.00 0.00
5:53 am 05:53 Clear N/A N/A N/A Calm 30.15 1021 10 16 0.00 0.00
6:53 am 06:53 Clear N/A N/A N/A Calm 30.17 1022 10 16 0.00 0.00
7:53 am 07:53 Sunny N/A N/A N/A Calm 30.18 1022 10 16 0.00 0.00
8:53 am 08:53 Sunny N/A N/A N/A N 3 6 30.22 1023 10 16 0.00 0.00
9:53 am 09:53 Sunny N/A N/A N/A Calm 30.22 1023 10 16 0.00 0.00
10:53 am 10:53 Sunny 70 21.1 62 16.7 76 76 S 6 9 30.13 1020 10 16 0.00 0.00
11:53 am 11:53 Sunny 73 22.8 64 17.8 73 73 SW 5 7 30.12 1020 10 16 0.00 0.00
12:53 pm 12:53 Sunny 76 24.4 64 17.8 67 67 NNW 5 7 30.10 1019 10 16 0.00 0.00
1:53 pm 13:53 Sunny 78 25.6 65 18.3 64 64 Calm 30.07 1018 10 16 0.00 0.00
2:53 pm 14:53 Sunny 79 26.1 62 16.7 56 56 VRB 5 7 30.04 1017 10 16 0.00 0.00
3:53 pm 15:53 Sunny 80 26.7 62 16.7 54 54 SSE 5 7 30.02 1016 10 16 0.00 0.00
4:53 pm 16:53 Sunny 80 26.7 58 14.4 47 47 VRB 6 9 30.00 1016 10 16 0.00 0.00
5:53 pm 17:53 Sunny 81 27.2 56 13.3 42 42 ESE 6 9 29.99 1015 10 16 0.00 0.00
6:53 pm 18:53 Sunny 79 26.1 52 11.1 39 39 SSE 8 13 29.99 1016 10 16 0.00 0.00
7:53 pm 19:53 Clear 76 24.4 49 9.4 39 39 SSE 6 9 29.99 1016 10 16 0.00 0.00
8:53 pm 20:53 Clear 67 19.4 44 6.7 44 44 NNE 3 6 30.01 1016 10 16 0.00 0.00
9:53 pm 21:53 Clear 64 17.8 47 8.3 54 54 Calm 30.04 1017 10 16 0.00 0.00
10:53 pm 22:53 Clear 62 16.7 48 8.9 60 60 Calm 30.02 1017 10 16 0.00 0.00
11:53 pm 23:53 Clear 61 16.1 50 10 67 67 Calm 30.01 1016 10 16 0.00 0.00

Powered by AerisWeather